Year,Month,Day,Hour,Minute,Value (Times are PST for temperature in C)
2011,09,30,00,00,12.80
2011,09,30,00,01,12.80
2011,09,30,00,02,12.80
2011,09,30,00,03,12.70
2011,09,30,00,04,12.70
2011,09,30,00,05,12.70
2011,09,30,00,06,12.70
2011,09,30,00,07,12.70
2011,09,30,00,08,12.70
2011,09,30,00,09,12.60
2011,09,30,00,10,12.60
2011,09,30,00,11,12.50
2011,09,30,00,12,12.50
2011,09,30,00,13,12.50
2011,09,30,00,14,12.50
2011,09,30,00,15,12.50
2011,09,30,00,16,12.60
2011,09,30,00,17,12.60
2011,09,30,00,18,12.60
2011,09,30,00,19,12.60
2011,09,30,00,20,12.60
2011,09,30,00,21,12.60
2011,09,30,00,22,12.70
2011,09,30,00,23,12.70
2011,09,30,00,24,12.70
2011,09,30,00,25,12.70
2011,09,30,00,26,12.70
2011,09,30,00,27,12.70
2011,09,30,00,28,12.70
2011,09,30,00,29,12.80
2011,09,30,00,30,12.80
2011,09,30,00,31,12.70
2011,09,30,00,32,12.70
2011,09,30,00,33,12.70
2011,09,30,00,34,12.60
2011,09,30,00,35,12.50
2011,09,30,00,36,12.40
2011,09,30,00,37,12.40
2011,09,30,00,38,12.30
2011,09,30,00,39,12.30
2011,09,30,00,40,12.20
2011,09,30,00,41,12.20
2011,09,30,00,42,12.20
2011,09,30,00,43,12.20
2011,09,30,00,44,12.10
2011,09,30,00,45,12.10
2011,09,30,00,46,12.10
2011,09,30,00,47,12.10
2011,09,30,00,48,12.10
2011,09,30,00,49,12.10
2011,09,30,00,50,12.00
2011,09,30,00,51,12.00
2011,09,30,00,52,11.90
2011,09,30,00,53,11.90
2011,09,30,00,54,11.90
2011,09,30,00,55,11.90
2011,09,30,00,56,12.00
2011,09,30,00,57,12.00
2011,09,30,00,58,12.00
2011,09,30,00,59,12.10
2011,09,30,01,00,12.10
2011,09,30,01,01,12.00
2011,09,30,01,02,12.00
2011,09,30,01,03,12.00
2011,09,30,01,04,12.00
2011,09,30,01,05,11.90
2011,09,30,01,06,11.90
2011,09,30,01,07,11.90
2011,09,30,01,08,11.80
2011,09,30,01,09,11.80
2011,09,30,01,10,11.80
2011,09,30,01,11,11.80
2011,09,30,01,12,11.80
2011,09,30,01,13,11.80
2011,09,30,01,14,11.80
2011,09,30,01,15,11.90
2011,09,30,01,16,11.90
2011,09,30,01,17,11.90
2011,09,30,01,18,11.90
2011,09,30,01,19,12.00
2011,09,30,01,20,12.00
2011,09,30,01,21,12.00
2011,09,30,01,22,12.00
2011,09,30,01,23,11.90
2011,09,30,01,24,11.90
2011,09,30,01,25,11.90
2011,09,30,01,26,11.90
2011,09,30,01,27,11.90
2011,09,30,01,28,11.80
2011,09,30,01,29,11.80
2011,09,30,01,30,11.80
2011,09,30,01,31,11.80
2011,09,30,01,32,11.80
2011,09,30,01,33,11.70
2011,09,30,01,34,11.70
2011,09,30,01,35,11.70
2011,09,30,01,36,11.70
2011,09,30,01,37,11.60
2011,09,30,01,38,11.60
2011,09,30,01,39,11.60
2011,09,30,01,40,11.60
2011,09,30,01,41,11.60
2011,09,30,01,42,11.60
2011,09,30,01,43,11.60
2011,09,30,01,44,11.50
2011,09,30,01,45,11.50
2011,09,30,01,46,11.50
2011,09,30,01,47,11.40
2011,09,30,01,48,11.40
2011,09,30,01,49,11.40
2011,09,30,01,50,11.40
2011,09,30,01,51,11.30
2011,09,30,01,52,11.30
2011,09,30,01,53,11.30
2011,09,30,01,54,11.30
2011,09,30,01,55,11.30
2011,09,30,01,56,11.20
2011,09,30,01,57,11.20
2011,09,30,01,58,11.20
2011,09,30,01,59,11.20
2011,09,30,02,00,11.20
2011,09,30,02,01,11.20
2011,09,30,02,02,11.20
2011,09,30,02,03,11.20
2011,09,30,02,04,11.20
2011,09,30,02,05,11.10
2011,09,30,02,06,11.10
2011,09,30,02,07,11.10
2011,09,30,02,08,11.10
2011,09,30,02,09,11.10
2011,09,30,02,10,11.10
2011,09,30,02,11,11.10
2011,09,30,02,12,11.10
2011,09,30,02,13,11.10
2011,09,30,02,14,11.10
2011,09,30,02,15,11.10
2011,09,30,02,16,11.10
2011,09,30,02,17,11.10
2011,09,30,02,18,11.20
2011,09,30,02,19,11.30
2011,09,30,02,20,11.40
2011,09,30,02,21,11.50
2011,09,30,02,22,11.50
2011,09,30,02,23,11.60
2011,09,30,02,24,11.60
2011,09,30,02,25,11.60
2011,09,30,02,26,11.60
2011,09,30,02,27,11.60
2011,09,30,02,28,11.60
2011,09,30,02,29,11.60
2011,09,30,02,30,11.60
2011,09,30,02,31,11.60
2011,09,30,02,32,11.60
2011,09,30,02,33,11.60
2011,09,30,02,34,11.60
2011,09,30,02,35,11.60
2011,09,30,02,36,11.70
2011,09,30,02,37,11.70
2011,09,30,02,38,11.70
2011,09,30,02,39,11.80
2011,09,30,02,40,11.80
2011,09,30,02,41,11.90
2011,09,30,02,42,11.90
2011,09,30,02,43,11.90
2011,09,30,02,44,11.90
2011,09,30,02,45,11.90
2011,09,30,02,46,11.90
2011,09,30,02,47,11.90
2011,09,30,02,48,11.90
2011,09,30,02,49,11.90
2011,09,30,02,50,11.90
2011,09,30,02,51,11.90
2011,09,30,02,52,11.90
2011,09,30,02,53,11.90
2011,09,30,02,54,11.90
2011,09,30,02,55,11.90
2011,09,30,02,56,12.00
2011,09,30,02,57,12.00
2011,09,30,02,58,12.00
2011,09,30,02,59,12.00
2011,09,30,03,00,12.00
2011,09,30,03,01,12.00
2011,09,30,03,02,12.00
2011,09,30,03,06,12.10
2011,09,30,03,07,12.10
2011,09,30,03,08,12.20
2011,09,30,03,09,12.20
2011,09,30,03,10,12.20
2011,09,30,03,11,12.20
2011,09,30,03,12,12.20
2011,09,30,03,13,12.20
2011,09,30,03,14,12.20
2011,09,30,03,15,12.20
2011,09,30,03,16,12.20
2011,09,30,03,17,12.20
2011,09,30,03,18,12.20
2011,09,30,03,19,12.20
2011,09,30,03,20,12.20
2011,09,30,03,21,12.20
2011,09,30,03,22,12.20
2011,09,30,03,23,12.20
2011,09,30,03,24,12.30
2011,09,30,03,25,12.30
2011,09,30,03,26,12.40
2011,09,30,03,27,12.60
2011,09,30,03,28,12.70
2011,09,30,03,29,13.00
2011,09,30,03,30,13.20
2011,09,30,03,31,13.50
2011,09,30,03,32,13.80
2011,09,30,03,33,13.90
2011,09,30,03,34,14.10
2011,09,30,03,35,14.20
2011,09,30,03,36,14.30
2011,09,30,03,37,14.40
2011,09,30,03,38,14.60
2011,09,30,03,39,14.80
2011,09,30,03,40,14.90
2011,09,30,03,41,15.00
2011,09,30,03,42,15.00
2011,09,30,03,43,15.00
2011,09,30,03,44,15.10
2011,09,30,03,45,15.10
2011,09,30,03,46,15.10
2011,09,30,03,47,15.00
2011,09,30,03,48,15.00
2011,09,30,03,49,15.00
2011,09,30,03,50,14.80
2011,09,30,03,51,14.60
2011,09,30,03,52,14.50
2011,09,30,03,53,14.30
2011,09,30,03,54,14.20
2011,09,30,03,55,14.10
2011,09,30,03,56,14.00
2011,09,30,03,57,13.90
2011,09,30,03,58,13.80
2011,09,30,03,59,13.70
2011,09,30,04,00,13.70
2011,09,30,04,01,13.70
2011,09,30,04,02,13.70
2011,09,30,04,03,13.70
2011,09,30,04,04,13.70
2011,09,30,04,05,13.70
2011,09,30,04,06,13.70
2011,09,30,04,07,13.70
2011,09,30,04,08,13.70
2011,09,30,04,09,13.60
2011,09,30,04,10,13.60
2011,09,30,04,11,13.60
2011,09,30,04,12,13.60
2011,09,30,04,13,13.60
2011,09,30,04,14,13.70
2011,09,30,04,15,13.70
2011,09,30,04,16,13.80
2011,09,30,04,17,14.00
2011,09,30,04,18,14.20
2011,09,30,04,19,14.40
2011,09,30,04,20,14.50
2011,09,30,04,21,14.50
2011,09,30,04,22,14.70
2011,09,30,04,23,14.80
2011,09,30,04,24,14.80
2011,09,30,04,25,14.90
2011,09,30,04,26,15.00
2011,09,30,04,27,15.00
2011,09,30,04,28,15.00
2011,09,30,04,29,14.80
2011,09,30,04,30,14.80
2011,09,30,04,31,14.70
2011,09,30,04,32,14.70
2011,09,30,04,33,14.60
2011,09,30,04,34,14.60
2011,09,30,04,35,14.50
2011,09,30,04,36,14.50
2011,09,30,04,37,14.60
2011,09,30,04,38,14.60
2011,09,30,04,39,14.70
2011,09,30,04,40,14.80
2011,09,30,04,41,14.90
2011,09,30,04,42,15.00
2011,09,30,04,43,15.00
2011,09,30,04,44,15.00
2011,09,30,04,45,15.00
2011,09,30,04,46,14.90
2011,09,30,04,47,14.80
2011,09,30,04,48,14.70
2011,09,30,04,49,14.60
2011,09,30,04,50,14.50
2011,09,30,04,51,14.40
2011,09,30,04,52,14.30
2011,09,30,04,53,14.30
2011,09,30,04,54,14.10
2011,09,30,04,55,14.00
2011,09,30,04,56,13.90
2011,09,30,04,57,13.80
2011,09,30,04,58,13.80
2011,09,30,04,59,13.70
2011,09,30,05,00,13.70
2011,09,30,05,01,13.70
2011,09,30,05,02,13.70
2011,09,30,05,03,13.60
2011,09,30,05,04,13.60
2011,09,30,05,05,13.50
2011,09,30,05,06,13.50
2011,09,30,05,07,13.50
2011,09,30,05,08,13.50
2011,09,30,05,09,13.60
2011,09,30,05,10,13.60
2011,09,30,05,11,13.60
2011,09,30,05,12,13.50
2011,09,30,05,13,13.50
2011,09,30,05,14,13.40
2011,09,30,05,15,13.40
2011,09,30,05,16,13.30
2011,09,30,05,17,13.30
2011,09,30,05,18,13.30
2011,09,30,05,19,13.20
2011,09,30,05,20,13.20
2011,09,30,05,21,13.20
2011,09,30,05,22,13.20
2011,09,30,05,23,13.20
2011,09,30,05,24,13.20
2011,09,30,05,25,13.20
2011,09,30,05,26,13.10
2011,09,30,05,27,13.10
2011,09,30,05,28,13.00
2011,09,30,05,29,12.90
2011,09,30,05,30,12.90
2011,09,30,05,31,12.90
2011,09,30,05,32,12.80
2011,09,30,05,33,12.80
2011,09,30,05,34,12.80
2011,09,30,05,35,12.90
2011,09,30,05,36,12.90
2011,09,30,05,37,12.90
2011,09,30,05,38,12.90
2011,09,30,05,39,12.90
2011,09,30,05,40,13.00
2011,09,30,05,41,12.90
2011,09,30,05,42,13.00
2011,09,30,05,43,13.00
2011,09,30,05,44,13.10
2011,09,30,05,45,13.20
2011,09,30,05,46,13.20
2011,09,30,05,47,13.20
2011,09,30,05,48,13.20
2011,09,30,05,49,13.20
2011,09,30,05,50,13.20
2011,09,30,05,51,13.20
2011,09,30,05,52,13.20
2011,09,30,05,53,13.20
2011,09,30,05,54,13.10
2011,09,30,05,55,13.10
2011,09,30,05,56,13.10
2011,09,30,05,57,13.10
2011,09,30,05,58,13.10
2011,09,30,05,59,13.10
2011,09,30,06,00,13.10
2011,09,30,06,01,13.10
2011,09,30,06,02,13.10
2011,09,30,06,03,13.10
2011,09,30,06,04,13.00
2011,09,30,06,05,12.90
2011,09,30,06,06,12.90
2011,09,30,06,07,12.90
2011,09,30,06,08,12.80
2011,09,30,06,09,12.80
2011,09,30,06,10,12.80
2011,09,30,06,11,12.80
2011,09,30,06,12,12.80
2011,09,30,06,13,12.80
2011,09,30,06,14,12.70
2011,09,30,06,15,12.70
2011,09,30,06,16,12.70
2011,09,30,06,17,12.70
2011,09,30,06,18,12.70
2011,09,30,06,19,12.70
2011,09,30,06,20,12.70
2011,09,30,06,21,12.70
2011,09,30,06,22,12.70
2011,09,30,06,23,12.70
2011,09,30,06,24,12.80
2011,09,30,06,25,12.80
2011,09,30,06,26,12.70
2011,09,30,06,27,12.70
2011,09,30,06,28,12.70
2011,09,30,06,29,12.70
2011,09,30,06,30,12.70
2011,09,30,06,31,12.70
2011,09,30,06,32,12.70
2011,09,30,06,33,12.70
2011,09,30,06,34,12.70
2011,09,30,06,35,12.70
2011,09,30,06,36,12.70
2011,09,30,06,37,12.60
2011,09,30,06,38,12.60
2011,09,30,06,39,12.60
2011,09,30,06,40,12.60
2011,09,30,06,41,12.60
2011,09,30,06,42,12.60
2011,09,30,06,43,12.60
2011,09,30,06,44,12.50
2011,09,30,06,45,12.50
2011,09,30,06,46,12.60
2011,09,30,06,47,12.60
2011,09,30,06,48,12.60
2011,09,30,06,49,12.60
2011,09,30,06,50,12.60
2011,09,30,06,51,12.60
2011,09,30,06,52,12.60
2011,09,30,06,53,12.60
2011,09,30,06,54,12.60
2011,09,30,06,55,12.60
2011,09,30,06,56,12.60
2011,09,30,06,57,12.60
2011,09,30,06,58,12.50
2011,09,30,06,59,12.50
2011,09,30,07,00,12.50
2011,09,30,07,01,12.50
2011,09,30,07,02,12.50
2011,09,30,07,03,12.50
2011,09,30,07,04,12.50
2011,09,30,07,05,12.50
2011,09,30,07,06,12.50
2011,09,30,07,07,12.50
2011,09,30,07,08,12.40
2011,09,30,07,09,12.40
2011,09,30,07,10,12.40
2011,09,30,07,11,12.40
2011,09,30,07,12,12.40
2011,09,30,07,13,12.40
2011,09,30,07,14,12.40
2011,09,30,07,15,12.40
2011,09,30,07,16,12.40
2011,09,30,07,17,12.50
2011,09,30,07,18,12.50
2011,09,30,07,19,12.50
2011,09,30,07,20,12.50
2011,09,30,07,21,12.50
2011,09,30,07,22,12.50
2011,09,30,07,23,12.40
2011,09,30,07,24,12.30
2011,09,30,07,25,12.20
2011,09,30,07,26,12.20
2011,09,30,07,27,12.10
2011,09,30,07,28,12.10
2011,09,30,07,29,12.10
2011,09,30,07,30,12.00
2011,09,30,07,31,12.00
2011,09,30,07,32,11.90
2011,09,30,07,33,11.90
2011,09,30,07,34,11.90
2011,09,30,07,35,11.90
2011,09,30,07,36,11.90
2011,09,30,07,37,11.90
2011,09,30,07,38,11.90
2011,09,30,07,39,11.90
2011,09,30,07,40,11.90
2011,09,30,07,41,11.90
2011,09,30,07,42,11.90
2011,09,30,07,43,12.00
2011,09,30,07,44,12.00
2011,09,30,07,45,12.10
2011,09,30,07,46,12.20
2011,09,30,07,47,12.20
2011,09,30,07,48,12.30
2011,09,30,07,49,12.30
2011,09,30,07,50,12.30
2011,09,30,07,51,12.30
2011,09,30,07,52,12.30
2011,09,30,07,53,12.40
2011,09,30,07,54,12.50
2011,09,30,07,55,12.50
2011,09,30,07,56,12.50
2011,09,30,07,57,12.60
2011,09,30,07,58,12.70
2011,09,30,07,59,12.70
2011,09,30,08,00,12.70
2011,09,30,08,01,12.70
2011,09,30,08,02,12.70
2011,09,30,08,03,12.80
2011,09,30,08,04,12.80
2011,09,30,08,05,12.80
2011,09,30,08,06,12.90
2011,09,30,08,07,12.90
2011,09,30,08,08,13.00
2011,09,30,08,09,13.00
2011,09,30,08,10,13.10
2011,09,30,08,11,13.10
2011,09,30,08,12,13.10
2011,09,30,08,13,13.20
2011,09,30,08,14,13.20
2011,09,30,08,15,13.20
2011,09,30,08,16,13.20
2011,09,30,08,17,13.20
2011,09,30,08,18,13.30
2011,09,30,08,19,13.30
2011,09,30,08,20,13.30
2011,09,30,08,21,13.30
2011,09,30,08,22,13.30
2011,09,30,08,23,13.30
2011,09,30,08,24,13.40
2011,09,30,08,25,13.40
2011,09,30,08,26,13.40
2011,09,30,08,27,13.40
2011,09,30,08,28,13.40
2011,09,30,08,29,13.40
2011,09,30,08,30,13.40
2011,09,30,08,31,13.50
2011,09,30,08,32,13.50
2011,09,30,08,33,13.50
2011,09,30,08,34,13.50
2011,09,30,08,35,13.50
2011,09,30,08,36,13.50
2011,09,30,08,37,13.50
2011,09,30,08,38,13.50
2011,09,30,08,39,13.50
2011,09,30,08,40,13.50
2011,09,30,08,41,13.40
2011,09,30,08,42,13.40
2011,09,30,08,43,13.40
2011,09,30,08,44,13.40
2011,09,30,08,45,13.40
2011,09,30,08,46,13.30
2011,09,30,08,47,13.30
2011,09,30,08,48,13.30
2011,09,30,08,49,13.30
2011,09,30,08,50,13.30
2011,09,30,08,51,13.30
2011,09,30,08,52,13.20
2011,09,30,08,53,13.20
2011,09,30,08,54,13.20
2011,09,30,08,55,13.20
2011,09,30,08,56,13.20
2011,09,30,08,57,13.20
2011,09,30,08,58,13.20
2011,09,30,08,59,13.20
2011,09,30,09,00,13.10
2011,09,30,09,01,13.10
2011,09,30,09,02,13.10
2011,09,30,09,03,13.10
2011,09,30,09,04,13.10
2011,09,30,09,05,13.10
2011,09,30,09,06,13.10
2011,09,30,09,07,13.10
2011,09,30,09,08,13.00
2011,09,30,09,09,13.00
2011,09,30,09,10,13.00
2011,09,30,09,11,13.00
2011,09,30,09,12,13.00
2011,09,30,09,13,12.90
2011,09,30,09,14,12.90
2011,09,30,09,15,12.90
2011,09,30,09,16,12.90
2011,09,30,09,17,12.90
2011,09,30,09,18,12.90
2011,09,30,09,19,12.90
2011,09,30,09,20,12.90
2011,09,30,09,21,12.90
2011,09,30,09,22,12.90
2011,09,30,09,23,12.90
2011,09,30,09,24,12.90
2011,09,30,09,25,13.00
2011,09,30,09,26,13.00
2011,09,30,09,27,13.00
2011,09,30,09,28,13.10
2011,09,30,09,29,13.10
2011,09,30,09,30,13.10
2011,09,30,09,31,13.20
2011,09,30,09,32,13.20
2011,09,30,09,33,13.30
2011,09,30,09,34,13.30
2011,09,30,09,35,13.40
2011,09,30,09,36,13.40
2011,09,30,09,37,13.50
2011,09,30,09,38,13.50
2011,09,30,09,39,13.60
2011,09,30,09,40,13.60
2011,09,30,09,41,13.70
2011,09,30,09,42,13.80
2011,09,30,09,43,13.80
2011,09,30,09,44,13.90
2011,09,30,09,45,14.00
2011,09,30,09,46,14.10
2011,09,30,09,47,14.10
2011,09,30,09,48,14.10
2011,09,30,09,49,14.20
2011,09,30,09,50,14.20
2011,09,30,09,51,14.20
2011,09,30,09,52,14.20
2011,09,30,09,53,14.20
2011,09,30,09,54,14.20
2011,09,30,09,55,14.10
2011,09,30,09,56,14.10
2011,09,30,09,57,14.00
2011,09,30,09,58,14.00
2011,09,30,09,59,13.90
2011,09,30,10,00,13.80
2011,09,30,10,01,13.80
2011,09,30,10,02,13.70
2011,09,30,10,03,13.70
2011,09,30,10,04,13.70
2011,09,30,10,05,13.60
2011,09,30,10,06,13.60
2011,09,30,10,07,13.60
2011,09,30,10,08,13.70
2011,09,30,10,09,13.70
2011,09,30,10,10,13.80
2011,09,30,10,11,13.80
2011,09,30,10,12,13.90
2011,09,30,10,13,14.00
2011,09,30,10,14,14.00
2011,09,30,10,15,14.10
2011,09,30,10,16,14.10
2011,09,30,10,17,14.10
2011,09,30,10,18,14.10
2011,09,30,10,19,14.10
2011,09,30,10,20,14.10
2011,09,30,10,21,14.20
2011,09,30,10,22,14.20
2011,09,30,10,23,14.20
2011,09,30,10,24,14.20
2011,09,30,10,25,14.20
2011,09,30,10,26,14.30
2011,09,30,10,27,14.30
2011,09,30,10,28,14.30
2011,09,30,10,29,14.40
2011,09,30,10,30,14.40
2011,09,30,10,31,14.40
2011,09,30,10,32,14.40
2011,09,30,10,33,14.40
2011,09,30,10,34,14.40
2011,09,30,10,35,14.30
2011,09,30,10,36,14.20
2011,09,30,10,37,14.20
2011,09,30,10,38,14.10
2011,09,30,10,39,14.10
2011,09,30,10,40,14.00
2011,09,30,10,41,14.00
2011,09,30,10,42,13.90
2011,09,30,10,43,13.90
2011,09,30,10,44,13.90
2011,09,30,10,45,13.90
2011,09,30,10,46,13.90
2011,09,30,10,47,13.90
2011,09,30,10,48,13.90
2011,09,30,10,49,13.90
2011,09,30,10,50,13.90
2011,09,30,10,51,13.90
2011,09,30,10,52,13.90
2011,09,30,10,53,14.00
2011,09,30,10,54,14.00
2011,09,30,10,55,14.00
2011,09,30,10,56,14.00
2011,09,30,10,57,14.00
2011,09,30,10,58,14.00
2011,09,30,10,59,14.10
2011,09,30,11,00,14.10
2011,09,30,11,01,14.10
2011,09,30,11,02,14.10
2011,09,30,11,03,14.10
2011,09,30,11,04,14.10
2011,09,30,11,05,14.10
2011,09,30,11,06,14.10
2011,09,30,11,07,14.10
2011,09,30,11,08,14.10
2011,09,30,11,09,14.10
2011,09,30,11,10,14.10
2011,09,30,11,11,14.00
2011,09,30,11,12,13.90
2011,09,30,11,13,13.90
2011,09,30,11,14,13.90
2011,09,30,11,15,13.80
2011,09,30,11,16,13.80
2011,09,30,11,17,13.80
2011,09,30,11,18,13.80
2011,09,30,11,19,13.80
2011,09,30,11,20,13.80
2011,09,30,11,21,13.80
2011,09,30,11,22,13.70
2011,09,30,11,23,13.70
2011,09,30,11,24,13.60
2011,09,30,11,25,13.60
2011,09,30,11,26,13.50
2011,09,30,11,27,13.50
2011,09,30,11,28,13.40
2011,09,30,11,29,13.40
2011,09,30,11,30,13.40
2011,09,30,11,31,13.40
2011,09,30,11,32,13.40
2011,09,30,11,33,13.40
2011,09,30,11,34,13.40
2011,09,30,11,35,13.40
2011,09,30,11,36,13.40
2011,09,30,11,37,13.40
2011,09,30,11,38,13.30
2011,09,30,11,39,13.30
2011,09,30,11,40,13.30
2011,09,30,11,41,13.30
2011,09,30,11,42,13.30
2011,09,30,11,43,13.30
2011,09,30,11,44,13.20
2011,09,30,11,45,13.20
2011,09,30,11,46,13.20
2011,09,30,11,47,13.20
2011,09,30,11,48,13.20
2011,09,30,11,49,13.20
2011,09,30,11,50,13.10
2011,09,30,11,51,13.00
2011,09,30,11,52,13.00
2011,09,30,11,53,12.90
2011,09,30,11,54,12.90
2011,09,30,11,55,12.80
2011,09,30,11,56,12.80
2011,09,30,11,57,12.80
2011,09,30,11,58,12.80
2011,09,30,11,59,12.70
2011,09,30,12,00,12.70
2011,09,30,12,01,12.70
2011,09,30,12,02,12.70
2011,09,30,12,03,12.60
2011,09,30,12,04,12.60
2011,09,30,12,05,12.60
2011,09,30,12,06,12.60
2011,09,30,12,07,12.60
2011,09,30,12,08,12.50
2011,09,30,12,09,12.50
2011,09,30,12,10,12.40
2011,09,30,12,11,12.40
2011,09,30,12,12,12.40
2011,09,30,12,13,12.40
2011,09,30,12,14,12.40
2011,09,30,12,15,12.30
2011,09,30,12,16,12.30
2011,09,30,12,17,12.20
2011,09,30,12,18,12.20
2011,09,30,12,19,12.20
2011,09,30,12,20,12.20
2011,09,30,12,21,12.20
2011,09,30,12,22,12.10
2011,09,30,12,23,12.10
2011,09,30,12,24,12.10
2011,09,30,12,25,12.10
2011,09,30,12,26,12.00
2011,09,30,12,27,12.00
2011,09,30,12,28,11.90
2011,09,30,12,29,11.90
2011,09,30,12,30,11.80
2011,09,30,12,31,11.80
2011,09,30,12,32,11.80
2011,09,30,12,33,11.80
2011,09,30,12,34,11.80
2011,09,30,12,35,11.70
2011,09,30,12,36,11.70
2011,09,30,12,37,11.80
2011,09,30,12,38,11.80
2011,09,30,12,39,11.80
2011,09,30,12,40,11.80
2011,09,30,12,41,11.80
2011,09,30,12,42,11.90
2011,09,30,12,43,11.90
2011,09,30,12,44,11.90
2011,09,30,12,45,12.00
2011,09,30,12,46,12.00
2011,09,30,12,47,12.00
2011,09,30,12,48,12.00
2011,09,30,12,49,12.00
2011,09,30,12,50,12.00
2011,09,30,12,51,12.10
2011,09,30,12,52,12.10
2011,09,30,12,53,12.10
2011,09,30,12,54,12.10
2011,09,30,12,55,12.20
2011,09,30,12,56,12.20
2011,09,30,12,57,12.20
2011,09,30,12,58,12.20
2011,09,30,12,59,12.30
2011,09,30,13,00,12.30
2011,09,30,13,01,12.30
2011,09,30,13,02,12.40
2011,09,30,13,03,12.40
2011,09,30,13,04,12.40
2011,09,30,13,05,12.50
2011,09,30,13,06,12.50
2011,09,30,13,07,12.50
2011,09,30,13,08,12.60
2011,09,30,13,09,12.60
2011,09,30,13,10,12.60
2011,09,30,13,11,12.60
2011,09,30,13,12,12.60
2011,09,30,13,13,12.70
2011,09,30,13,14,12.70
2011,09,30,13,15,12.70
2011,09,30,13,16,12.80
2011,09,30,13,17,12.80
2011,09,30,13,18,12.80
2011,09,30,13,19,12.90
2011,09,30,13,20,12.90
2011,09,30,13,21,12.90
2011,09,30,13,22,13.00
2011,09,30,13,23,13.10
2011,09,30,13,24,13.10
2011,09,30,13,25,13.10
2011,09,30,13,26,13.20
2011,09,30,13,27,13.30
2011,09,30,13,28,13.30
2011,09,30,13,29,13.30
2011,09,30,13,30,13.30
2011,09,30,13,31,13.30
2011,09,30,13,32,13.30
2011,09,30,13,33,13.40
2011,09,30,13,34,13.40
2011,09,30,13,35,13.40
2011,09,30,13,36,13.40
2011,09,30,13,37,13.40
2011,09,30,13,38,13.50
2011,09,30,13,39,13.50
2011,09,30,13,40,13.50
2011,09,30,13,41,13.50
2011,09,30,13,42,13.60
2011,09,30,13,43,13.60
2011,09,30,13,44,13.60
2011,09,30,13,45,13.70
2011,09,30,13,46,13.70
2011,09,30,13,47,13.70
2011,09,30,13,48,13.70
2011,09,30,13,49,13.70
2011,09,30,13,50,13.70
2011,09,30,13,51,13.70
2011,09,30,13,52,13.80
2011,09,30,13,53,13.80
2011,09,30,13,54,13.80
2011,09,30,13,55,13.80
2011,09,30,13,56,13.80
2011,09,30,13,57,13.80
2011,09,30,13,58,13.70
2011,09,30,13,59,13.70
2011,09,30,14,00,13.70
2011,09,30,14,01,13.60
2011,09,30,14,02,13.60
2011,09,30,14,03,13.50
2011,09,30,14,04,13.50
2011,09,30,14,05,13.40
2011,09,30,14,06,13.30
2011,09,30,14,07,13.30
2011,09,30,14,08,13.30
2011,09,30,14,09,13.20
2011,09,30,14,10,13.20
2011,09,30,14,11,13.20
2011,09,30,14,12,13.20
2011,09,30,14,13,13.20
2011,09,30,14,14,13.20
2011,09,30,14,15,13.20
2011,09,30,14,16,13.10
2011,09,30,14,17,13.10
2011,09,30,14,18,13.10
2011,09,30,14,19,13.10
2011,09,30,14,20,13.10
2011,09,30,14,21,13.10
2011,09,30,14,22,13.20
2011,09,30,14,23,13.20
2011,09,30,14,24,13.20
2011,09,30,14,25,13.30
2011,09,30,14,26,13.30
2011,09,30,14,27,13.40
2011,09,30,14,28,13.40
2011,09,30,14,29,13.40
2011,09,30,14,30,13.40
2011,09,30,14,31,13.40
2011,09,30,14,32,13.40
2011,09,30,14,33,13.40
2011,09,30,14,34,13.40
2011,09,30,14,35,13.30
2011,09,30,14,36,13.30
2011,09,30,14,37,13.30
2011,09,30,14,38,13.30
2011,09,30,14,39,13.40
2011,09,30,14,40,13.40
2011,09,30,14,41,13.40
2011,09,30,14,42,13.40
2011,09,30,14,43,13.40
2011,09,30,14,44,13.40
2011,09,30,14,45,13.30
2011,09,30,14,46,13.30
2011,09,30,14,47,13.30
2011,09,30,14,48,13.30
2011,09,30,14,49,13.30
2011,09,30,14,50,13.30
2011,09,30,14,51,13.30
2011,09,30,14,52,13.30
2011,09,30,14,53,13.30
2011,09,30,14,54,13.20
2011,09,30,14,55,13.20
2011,09,30,14,56,13.20
2011,09,30,14,57,13.20
2011,09,30,14,58,13.10
2011,09,30,14,59,13.10
2011,09,30,15,00,13.10
2011,09,30,15,01,13.10
2011,09,30,15,02,13.10
2011,09,30,15,03,13.10
2011,09,30,15,04,13.10
2011,09,30,15,05,13.10
2011,09,30,15,06,13.10
2011,09,30,15,07,13.00
2011,09,30,15,08,13.00
2011,09,30,15,09,13.00
2011,09,30,15,10,13.00
2011,09,30,15,11,13.00
2011,09,30,15,12,13.10
2011,09,30,15,13,13.10
2011,09,30,15,14,13.10
2011,09,30,15,15,13.10
2011,09,30,15,16,13.10
2011,09,30,15,17,13.10
2011,09,30,15,18,13.10
2011,09,30,15,19,13.10
2011,09,30,15,20,13.10
2011,09,30,15,21,13.00
2011,09,30,15,22,13.00
2011,09,30,15,23,13.00
2011,09,30,15,24,13.00
2011,09,30,15,25,13.00
2011,09,30,15,26,12.90
2011,09,30,15,27,12.90
2011,09,30,15,28,12.90
2011,09,30,15,29,13.00
2011,09,30,15,30,13.00
2011,09,30,15,31,13.00
2011,09,30,15,32,13.00
2011,09,30,15,33,13.00
2011,09,30,15,34,13.00
2011,09,30,15,35,13.00
2011,09,30,15,36,13.10
2011,09,30,15,37,13.10
2011,09,30,15,38,13.20
2011,09,30,15,39,13.10
2011,09,30,15,40,13.20
2011,09,30,15,41,13.20
2011,09,30,15,42,13.20
2011,09,30,15,43,13.20
2011,09,30,15,44,13.20
2011,09,30,15,45,13.30
2011,09,30,15,46,13.30
2011,09,30,15,47,13.30
2011,09,30,15,48,13.40
2011,09,30,15,49,13.40
2011,09,30,15,50,13.40
2011,09,30,15,51,13.40
2011,09,30,15,52,13.40
2011,09,30,15,53,13.40
2011,09,30,15,54,13.40
2011,09,30,15,55,13.40
2011,09,30,15,56,13.40
2011,09,30,15,57,13.40
2011,09,30,15,58,13.50
2011,09,30,15,59,13.50
2011,09,30,16,00,13.60
2011,09,30,16,01,13.60
2011,09,30,16,02,13.50
2011,09,30,16,03,13.50
2011,09,30,16,04,13.50
2011,09,30,16,05,13.60
2011,09,30,16,06,13.60
2011,09,30,16,07,13.60
2011,09,30,16,08,13.60
2011,09,30,16,09,13.70
2011,09,30,16,10,13.70
2011,09,30,16,11,13.60
2011,09,30,16,12,13.60
2011,09,30,16,13,13.60
2011,09,30,16,14,13.50
2011,09,30,16,15,13.50
2011,09,30,16,16,13.40
2011,09,30,16,17,13.40
2011,09,30,16,18,13.40
2011,09,30,16,19,13.30
2011,09,30,16,20,13.30
2011,09,30,16,21,13.30
2011,09,30,16,22,13.20
2011,09,30,16,23,13.20
2011,09,30,16,24,13.20
2011,09,30,16,25,13.20
2011,09,30,16,26,13.20
2011,09,30,16,27,13.20
2011,09,30,16,28,13.20
2011,09,30,16,29,13.10
2011,09,30,16,30,13.20
2011,09,30,16,31,13.20
2011,09,30,16,32,13.20
2011,09,30,16,33,13.20
2011,09,30,16,34,13.20
2011,09,30,16,35,13.20
2011,09,30,16,36,13.20
2011,09,30,16,37,13.20
2011,09,30,16,38,13.20
2011,09,30,16,39,13.20
2011,09,30,16,40,13.20
2011,09,30,16,41,13.20
2011,09,30,16,42,13.20
2011,09,30,16,43,13.30
2011,09,30,16,44,13.30
2011,09,30,16,45,13.30
2011,09,30,16,46,13.30
2011,09,30,16,47,13.30
2011,09,30,16,48,13.30
2011,09,30,16,49,13.30
2011,09,30,16,50,13.30
2011,09,30,16,51,13.30
2011,09,30,16,52,13.30
2011,09,30,16,53,13.30
2011,09,30,16,54,13.30
2011,09,30,16,55,13.30
2011,09,30,16,56,13.40
2011,09,30,16,57,13.40
2011,09,30,16,58,13.40
2011,09,30,16,59,13.50
2011,09,30,17,00,13.60
2011,09,30,17,01,13.60
2011,09,30,17,02,13.60
2011,09,30,17,03,13.60
2011,09,30,17,04,13.60
2011,09,30,17,05,13.60
2011,09,30,17,06,13.60
2011,09,30,17,07,13.60
2011,09,30,17,08,13.60
2011,09,30,17,09,13.50
2011,09,30,17,10,13.50
2011,09,30,17,11,13.40
2011,09,30,17,12,13.40
2011,09,30,17,13,13.30
2011,09,30,17,14,13.30
2011,09,30,17,15,13.20
2011,09,30,17,16,13.20
2011,09,30,17,17,13.10
2011,09,30,17,18,13.10
2011,09,30,17,19,13.00
2011,09,30,17,20,13.00
2011,09,30,17,21,13.00
2011,09,30,17,22,12.90